Tracking 35280 objects as of 7-Sep-2026
HD Live streaming from Space Station
objects crossing your sky now

ERS 9

Track ERS 9 now!
10-day predictions
ERS 9 is classified as:


NORAD ID: 635
Int'l Code: 1963-030B
Launch date: July 19, 1963
Source: United States (US)
Launch site: AIR FORCE WESTERN TEST RANGE (AFWTR)
Your satellite tracking list
Your tracking list is empty




NASA's NSSDC Master Catalog

Two Line Element Set (TLE):
1 00635U 63030B   25281.42451812 -.00000018  00000-0 -10374-1 0  9998
2 00635  88.4228 228.9160 0044348 284.1662  75.4263  8.57948362948851
Source of the keplerian elements: AFSPC